This is the latest recevied weather packets stored in our database for station/object DF9PV-5. If no packets are shown the sender has not sent any weather packets the latest 10 day(s).
| Time | Temp. | Humidity | Pressure | Rain* | Wind** | Luminosity | Snow |
|---|---|---|---|---|---|---|---|
| 1777083323 | 4.44° C | 86% | 1019.7 hPa | 0 mm | - | - | - |
| 1777081819 | 5° C | 85% | 1019.6 hPa | 0 mm | - | - | - |
| 1777081531 | 4.44° C | 85% | 1019.6 hPa | 0 mm | - | - | - |
| 1777078539 | 5.56° C | 81% | 1019.7 hPa | 0 mm | - | - | - |
| 1777077627 | 5.56° C | 81% | 1019.8 hPa | 0 mm | - | - | - |
| 1777076772 | 6.11° C | 80% | 1019.9 hPa | 0 mm | - | - | - |
| 1777076123 | 6.11° C | 79% | 1020 hPa | 0 mm | - | - | - |
| 1777075551 | 6.11° C | 79% | 1020 hPa | 0 mm | - | - | - |
| 1777071347 | 7.78° C | 73% | 1020.3 hPa | 0 mm | - | - | - |
| 1777069230 | 9.44° C | 67% | 1020.3 hPa | 0 mm | - | - | - |
| 1777065932 | 10° C | 64% | 1020 hPa | 0 mm | - | - | - |
| 1777065323 | 10° C | 63% | 1020 hPa | 0 mm | - | - | - |
| 1777065019 | 10° C | 63% | 1020 hPa | 0 mm | - | - | - |
| 1777063519 | 11.11° C | 60% | 1020.1 hPa | 0 mm | - | - | - |
| 1777063228 | 11.11° C | 59% | 1020.1 hPa | 0 mm | - | - | - |
| 1777062047 | 12.22° C | 56% | 1020.2 hPa | 0 mm | - | - | - |
| 1777060263 | 11.67° C | 56% | 1020.1 hPa | 0 mm | - | - | - |
| 1777059063 | 12.78° C | 52% | 1020.2 hPa | 0 mm | - | - | - |
| 1777056927 | 13.33° C | 48% | 1020.1 hPa | 0 mm | - | - | - |
| 1777055423 | 15° C | 44% | 1020.1 hPa | 0 mm | - | - | - |
| 1777054243 | 15.56° C | 41% | 1020.1 hPa | 0 mm | - | - | - |
| 1777053020 | 16.11° C | 40% | 1020.1 hPa | 0 mm | - | - | - |
| 1777052732 | 16.67° C | 40% | 1020.2 hPa | 0 mm | - | - | - |
| 1777051820 | 17.22° C | 40% | 1020.2 hPa | 0 mm | - | - | - |
| 1777050332 | 19.44° C | 36% | 1020.2 hPa | 0 mm | - | - | - |
* Rain latest hour (hover to see other rain measurements)
** Current wind speed in m/s (hover to see current wind gust speed)